TimeAKST,TemperatureF,Dew PointF,Humidity,Sea Level PressureIn,VisibilityMPH,Wind Direction,Wind SpeedMPH,Gust SpeedMPH,PrecipitationIn,Events,Conditions,WindDirDegrees,DateUTC
12:52 AM,-9.9,-16.1,74,30.31,10.0,Calm,Calm,-,N/A,,Clear,0,2012-11-25 09:52:00
1:52 AM,-11.0,-17.0,75,30.33,10.0,Calm,Calm,-,N/A,,Clear,0,2012-11-25 10:52:00
2:52 AM,-11.9,-18.0,74,30.34,10.0,Calm,Calm,-,N/A,,Clear,0,2012-11-25 11:52:00
3:52 AM,-9.9,-16.1,74,30.35,10.0,WNW,4.6,-,N/A,,Clear,290,2012-11-25 12:52:00
4:52 AM,-11.9,-18.0,74,30.36,10.0,Calm,Calm,-,N/A,,Clear,0,2012-11-25 13:52:00
5:52 AM,-14.1,-18.9,79,30.37,10.0,Calm,Calm,-,N/A,,Clear,0,2012-11-25 14:52:00
6:52 AM,-11.0,-17.0,75,30.38,10.0,West,4.6,-,N/A,,Clear,270,2012-11-25 15:52:00
7:52 AM,-15.0,-20.0,78,30.39,10.0,NW,3.5,-,N/A,,Clear,320,2012-11-25 16:52:00
8:52 AM,-15.0,-20.9,75,30.41,10.0,WNW,3.5,-,N/A,,Clear,290,2012-11-25 17:52:00
9:52 AM,-16.1,-20.9,79,30.41,10.0,North,3.5,-,N/A,,Clear,10,2012-11-25 18:52:00
10:52 AM,-15.0,-20.9,75,30.43,10.0,Calm,Calm,-,N/A,,Clear,0,2012-11-25 19:52:00
11:52 AM,-11.0,-17.0,75,30.44,10.0,Calm,Calm,-,N/A,,Clear,0,2012-11-25 20:52:00
12:52 PM,-9.0,-15.0,75,30.45,10.0,Calm,Calm,-,N/A,,Clear,0,2012-11-25 21:52:00
1:52 PM,-8.0,-15.0,71,30.45,10.0,Calm,Calm,-,N/A,,Clear,0,2012-11-25 22:52:00
2:52 PM,-9.0,-15.0,75,30.45,10.0,Calm,Calm,-,N/A,,Clear,0,2012-11-25 23:52:00
3:52 PM,-11.9,-17.0,78,30.45,10.0,Calm,Calm,-,N/A,,Clear,0,2012-11-26 00:52:00
4:52 PM,-15.0,-20.0,78,30.46,10.0,Calm,Calm,-,N/A,,Clear,0,2012-11-26 01:52:00
5:52 PM,-17.0,-22.0,78,30.47,10.0,NW,4.6,-,N/A,,Clear,320,2012-11-26 02:52:00
6:52 PM,-16.1,-22.0,74,30.48,10.0,West,4.6,-,N/A,,Clear,260,2012-11-26 03:52:00
7:52 PM,-16.1,-20.9,79,30.48,10.0,Calm,Calm,-,N/A,,Clear,0,2012-11-26 04:52:00
8:52 PM,-15.0,-22.0,71,30.48,10.0,Calm,Calm,-,N/A,,Clear,0,2012-11-26 05:52:00
9:52 PM,-17.0,-22.0,78,30.49,10.0,Calm,Calm,-,N/A,,Clear,0,2012-11-26 06:52:00
10:52 PM,-17.0,-23.1,74,30.49,10.0,Calm,Calm,-,N/A,,Clear,0,2012-11-26 07:52:00
11:52 PM,-17.0,-23.1,74,30.49,10.0,Calm,Calm,-,N/A,,Clear,0,2012-11-26 08:52:00